FW3095 Weather Reports


Display with metric or nautical units.
time (UTC)temp
F
wind
direction
speed
MPH
gust
MPH
rain 1hr
in
rain 24hr
in
rain mn
in
humidity
%
barometer
mb
20260503044552 37 140 0.0 0.0 0.00 0.00 0.00 80 989.4
20260503043051 37 140 0.0 0.0 0.00 0.00 0.00 81 989.3
20260503041549 37 140 0.0 0.0 0.00 0.00 0.00 80 989.3
20260503040059 38 140 0.0 0.0 0.00 0.00 0.00 78 989.4
20260503034546 39 140 0.0 0.0 0.00 0.00 0.00 78 989.3
20260503033044 40 140 0.0 0.0 0.00 0.00 0.00 78 989.3
20260503031557 40 140 0.0 0.0 0.00 0.00 0.00 78 989.4
20260503030048 41 140 0.0 0.0 0.00 0.00 0.00 73 989.3
20260503024542 41 140 0.0 0.0 0.00 0.00 0.00 72 989.5
20260503023049 41 140 0.0 0.0 0.00 0.00 0.00 73 989.4
20260503021541 39 301 0.0 0.0 0.00 0.00 0.00 74 989.4
20260503020141 40 301 0.0 0.0 0.00 0.00 0.00 71 989.4
20260503014556 42 301 0.0 0.0 0.00 0.00 0.00 67 989.2
20260503013040 43 301 0.0 0.0 0.00 0.00 0.00 63 989.1
20260503011539 44 301 0.0 0.0 0.00 0.00 0.00 61 989.1
20260503010040 45 301 0.0 0.0 0.00 0.00 0.00 55 989.1
20260503004538 47 301 0.0 0.0 0.00 0.00 0.00 52 989.1
20260503003038 49 301 0.0 1.0 0.00 0.00 0.00 50 989.2
20260503001552 50 301 0.0 3.0 0.00 0.00 0.00 47 989.1
20260503000038 51 334 2.0 4.0 0.00 0.00 0.00 46 989.0
20260502234541 51 349 2.0 5.0 0.00 0.00 0.00 45 988.9
20260502233037 51 310 2.0 7.0 0.00 0.00 0.00 45 989.0
20260502231536 52 299 4.0 10.0 0.00 0.00 0.00 44 989.0
20260502230037 51 300 6.0 12.0 0.00 0.00 0.00 40 989.1
20260502224535 53 292 4.0 7.0 0.00 0.00 0.00 43 989.0
20260502223035 52 312 2.0 8.0 0.00 0.00 0.00 44 989.1
20260502221540 52 311 6.0 13.0 0.00 0.00 0.00 41 989.1
20260502220033 52 284 6.0 9.0 0.00 0.00 0.00 43 989.0
20260502214533 53 313 3.0 13.0 0.00 0.00 0.00 44 989.0
20260502213032 53 312 7.0 12.0 0.00 0.00 0.00 43 989.1
20260502211532 52 264 3.0 12.0 0.00 0.00 0.00 45 988.9
20260502210030 51 304 6.0 11.0 0.00 0.00 0.00 47 989.1
20260502204529 52 15 2.0 9.0 0.00 0.00 0.00 48 989.0
20260502203028 52 247 4.0 10.0 0.00 0.00 0.00 43 989.1
20260502201526 52 284 5.0 14.0 0.00 0.00 0.00 48 989.3
20260502200024 51 278 5.0 11.0 0.00 0.00 0.00 44 989.5
20260502194523 51 304 4.0 10.0 0.00 0.00 0.00 50 989.6
20260502193020 51 303 2.0 6.0 0.00 0.00 0.00 50 989.8
20260502191519 49 359 1.0 7.0 0.00 0.00 0.00 51 990.0
20260502190019 49 311 5.0 9.0 0.00 0.00 0.00 48 990.0
20260502184526 50 264 6.0 12.0 0.00 0.00 0.00 52 990.1
20260502183027 49 319 4.0 10.0 0.00 0.00 0.00 52 990.3
20260502181519 49 302 4.0 10.0 0.00 0.00 0.00 51 990.3
20260502163007 46 316 4.0 8.0 0.00 0.00 0.00 59 991.1
20260502161506 47 295 3.0 8.0 0.00 0.00 0.00 60 991.1
20260502151605 45 353 2.0 5.0 0.00 0.00 0.00 64 991.2
20260502123036 39 323 1.0 6.0 0.00 0.00 0.00 73 990.7
20260502121540 39 310 1.0 4.0 0.00 0.00 0.00 72 990.5
20260502114526 38 36 0.0 0.0 0.00 0.00 0.00 75 990.1
20260502113026 38 37 0.0 0.0 0.00 0.00 0.00 77 990.0
20260502111528 35 36 0.0 0.0 0.00 0.00 0.00 84 990.1
20260502110027 33 36 0.0 0.0 0.00 0.00 0.00 83 990.1
20260502104525 32 36 0.0 2.0 0.00 0.01 0.00 84 990.0
20260502103028 30 36 0.0 0.0 0.00 0.01 0.00 86 989.9
20260502101534 32 36 0.0 0.0 0.00 0.01 0.00 86 989.9
20260502091511 34 36 0.0 0.0 0.00 0.01 0.00 82 989.7
20260502070101 40 333 0.0 3.0 0.00 0.10 0.00 78 989.7
20260502064550 40 323 0.0 2.0 0.00 0.12 0.00 77 989.7
20260502063048 40 323 0.0 2.0 0.00 0.12 0.00 77 989.7
20260502061548 40 324 0.0 2.0 0.00 0.12 0.00 76 989.8
20260502060045 40 323 1.0 3.0 0.00 0.12 0.00 75 990.0
20260502054545 40 326 1.0 3.0 0.00 0.14 0.00 76 990.1
20260502053042 40 326 0.0 3.0 0.00 0.14 0.00 76 990.1
20260502051550 41 344 1.0 3.0 0.00 0.14 0.00 76 990.1
20260502050042 41 343 1.0 3.0 0.00 0.14 0.00 76 989.9